Other Public Products
Issued by NWS Grand Forks, ND

Home | Current Version | Previous Version | Graphics & Text | Print | Product List | Glossary On
Versions: 1 2 3 4 5 6 7 8 9 10 11 12 13 14 15 16 17 18 19 20 21 22 23 24 25 26 27 28 29 30 31 32 33 34 35 36 37 38 39 40 41 42 43 44 45 46 47 48 49 50
928
FPUS83 KFGF 240831
OPUFGF
PRAIRIE TO PINES WEATHER ROUNDUP
NATIONAL WEATHER SERVICE EASTERN NORTH DAKOTA/GRAND FORKS ND
200 AM CST FRI FEB 24 2017

 **SATELLITE DATA USED TO AUGMENT SKY COVER AT AUTOMATED STATIONS**
 *****  WEATHER ACROSS EASTERN NORTH DAKOTA  *****

CITY           SKY/WX    TMP DP  RH WIND       PRES   REMARKS
GRAND FORKS    FAIR      18  10  71 N8        30.15F WCI   8
GRAND FORKS AF FAIR      15  11  85 N7        30.16S WCI   5
GRAND CITY NWS NOT AVBL
BUXTON         NOT AVBL
DEVILS LAKE    CLOUDY    16  13  88 SW5       30.14R WCI   9
FARGO          FAIR      21  12  68 N21       30.10F WCI   5
WAHPETON ARPT  FAIR      21  12  68 N21G29    30.05R WCI   6
$$

 *****  WEATHER ACROSS CENTRAL AND WESTERN NORTH DAKOTA  *****

CITY           SKY/WX    TMP DP  RH WIND       PRES   REMARKS
JAMESTOWN      FAIR      19  16  88 N9        30.10F WCI   8
BISMARCK       FAIR      16  11  80 W3        30.16S
MINOT          CLOUDY    24  16  71 W9        30.13S WCI  14
MINOT AFB      CLOUDY    23  18  78 NW8       30.13S WCI  14
GARRISON         N/A      9   6  88 CALM      30.14S
WILLISTON      CLOUDY    10   7  87 CALM      30.16S
DICKINSON      FAIR      12   7  80 NE6       30.09S WCI   3
HETTINGER      FAIR      14  10  84 N7        30.10S WCI   4
$$

 *****  OTHER OBSERVATIONS NORTHEAST NORTH DAKOTA  *****

CITY           SKY/WX    TMP DP  RH WIND       PRES   REMARKS
WALHALLA       NOT AVBL
LANGDON        NOT AVBL
CAVALIER         N/A     16  14  93 NE5       30.18R WCI   9
GRAFTON        PTSUNNY   14  14 100 NW3       30.19S
CANDO          NOT AVBL
FORT TOTTEN      N/A     14  14 100 S2        29.95S
ROLLA          FAIR      18  14  86 NW9       30.11S WCI   6
RUGBY            N/A      9   7  92 W6        30.13S WCI  -1
 ***** THE ABOVE OBSERVATIONS ARE NON NWS ARE NOT QUALITY
        CONTROLLED AND MAY MIS-REPORT RAIN FOR SNOW...
$$

 *****  OTHER OBSERVATIONS SOUTHEAST NORTH DAKOTA *****

CITY           SKY/WX    TMP DP  RH WIND       PRES   REMARKS
COOPERSTOWN    FAIR      18  16  93 N7        30.12S WCI   8
VALLEY CITY    PTSUNNY   19  19 100 NE12      30.12S WCI   7
OAKES          NOT AVBL
GWINNER        FAIR      21  19  93 N17       30.07S WCI   7
SHEYENNE NWR     N/A     19  10  68 N13       29.95S WCI   6
BUFFALO        NOT AVBL
WYNDMERE         N/A     21  16  79 N16         N/A  WCI   7
 ***** THE ABOVE OBSERVATIONS ARE NON NWS ARE NOT QUALITY
       CONTROLLED AND MAY MIS-REPORT RAIN FOR SNOW...
$$

  *****  WEATHER ACROSS NORTHERN MINNESOTA  *****

CITY           SKY/WX    TMP DP  RH WIND       PRES   REMARKS
FLAG ISLAND    FAIR       9   3  78 NW7       30.12F WCI  -3
WARROAD        FAIR       7   1  78 NW6       30.12F WCI  -3
ROSEAU         FAIR       9   1  72 NW5       30.14F WCI   0
HALLOCK        FAIR      12  10  92 CALM      30.17S
THF RVR FALLS  FAIR      13   7  77 N8        30.13F WCI   2
HALSTAD          N/A     19  12  73 N17         N/A  WCI   4
FOSSTON        FAIR      12   7  79 N14       30.08F WCI  -3
BAUDETTE       FAIR       8   3  80 NW8       30.09F WCI  -4
WASKISH        FAIR      10   7  85 N5        30.08S WCI   2
CROOKSTON      FAIR      18  10  73 NE9       30.14F WCI   6
$$
  *****  WEATHER ACROSS CENTRAL AND WEST MINNESOTA  *****

CITY           SKY/WX    TMP DP  RH WIND       PRES   REMARKS
BEMIDJI        FAIR      13   7  77 N10       30.05S WCI  -1
PARK RAPIDS    FAIR      16   6  65 N13       30.01S WCI   2
WADENA         FAIR      16  10  79 N15       29.99F WCI   1
DETROIT LAKES  FAIR      18  10  73 N8G20     30.04S WCI   7
MOORHEAD       FAIR      19  12  73 N16G25    30.09F WCI   5
FERGUS FALLS   FAIR      19  10  68 NE13G20   30.07R WCI   7
ELBOW LAKE     FAIR      20  12  72 NE17G24   29.99F WCI   5
MORRIS MN      CLOUDY    23  18  80 N20G25    29.96S WCI   8
STAPLES        FAIR      18  10  73 N13       29.99S WCI   4
WHEATON        FAIR      21  12  68 N22       30.03F WCI   5
$$
  *****  WEATHER ELSEWHERE ACROSS MINNESOTA  *****

CITY           SKY/WX    TMP DP  RH WIND       PRES   REMARKS
DULUTH         FAIR      19  14  81 N8        29.95R WCI   9
INTRNTL FALLS  FAIR      13   3  64 N7        30.06F WCI   3
ELY            FAIR      16   7  67 NE6       29.99R WCI   7
CLOQUET        FAIR      19  12  73 N8        29.96S WCI   9
BRAINERD       FAIR      19  10  68 N12       29.99R WCI   7
HIBBING        FAIR      15  10  80 N9        29.98F WCI   3
ALEXANDRIA     MOCLDY    21  13  71 NE17      29.96F WCI   7
SAINT CLOUD    MOCLDY    24  15  68 N15G28    29.93F WCI  11
MINNEAPOLIS    CLOUDY    28  19  69 NE15G26   29.84F WCI  16
$$

  *****  WEATHER ACROSS SOUTH DAKOTA  *****

CITY           SKY/WX    TMP DP  RH WIND       PRES   REMARKS
SIOUX FALLS    CLOUDY    27  24  89 N20G28    29.83R WCI  13
BROOKINGS      CLOUDY    24  20  84 N20G30    29.86R WCI  10
WATERTOWN      MOCLDY    19  13  77 N29G35    29.91S WCI   0
HURON          CLOUDY    22  16  78 N21G29    29.98R WCI   6
SISSETON         N/A     22  17  81 N21G30    30.01F WCI   6
ABERDEEN       FAIR      21  13  71 N24G30    30.04S WCI   4
MITCHELL       CLOUDY    25  20  81 N24G32    29.94R WCI   9
PIERRE         CLOUDY    26  19  74 N21G28    30.00R WCI  12
MOBRIDGE       CLOUDY    26  16  65 NE18G26   30.04F WCI  13
RAPID CITY     FLURRIES  24  21  88 N9        29.99S WCI  14
$$

  *****  SOME WEATHER IN NEARBY STATES *****

CITY           SKY/WX    TMP DP  RH WIND       PRES   REMARKS
GLASGOW MT     CLOUDY    24  18  77 SE13      30.09S WCI  12
GREAT FALLS MT CLOUDY    24  21  88 CALM      29.96R
CHEYENNE WY    LGT SNOW  13  10  88 N6        29.81R FOG     WCI   4
SCOTTSBLUFF NE LGT SNOW  22  17  81 N9        29.90S WCI  12
OMAHA NE       CLOUDY    35  29  78 N21       29.62R WCI  24
DES MOINES IA  DRIZZLE   37  34  89 NE22      29.51F
DAVENPORT IA   CLOUDY    37  35  92 E12G24    29.51F
CHICAGO IL     LGT RAIN  40  37  89 NE15G22   29.59F
EAU CLAIRE WI  LGT SNOW  29  27  92 NE13G20   29.79F VSB 1   WCI  19
LA CROSSE WI   LGT SNOW  35  31  85 NE14      29.68F FOG
$$

  *****  SOME NATIONAL WEATHER *****

CITY           SKY/WX    TMP DP  RH WIND       PRES   REMARKS
LA GUARDIA NY  FAIR      53  47  79 S7        29.91S
RALEIGH NC     FAIR      53  50  89 CALM      29.92F
ATLANTA GA     FAIR      59  52  77 SE3       29.87F
NEW ORLEANS LA MOCLDY    65  63  93 S6        29.78S
OKLAHOMA CITY  CLOUDY    44  37  76 N23G32    29.68R
ALBUQUERQUE NM FAIR      36  14  40 W8        29.84R
SALT LAKE CITY CLOUDY    27  24  89 N7        29.92S WCI  19
LOS ANGELES CA FAIR      51  17  26 N5        30.11R
BOISE ID       CLOUDY    29  24  82 NW21G26   29.99R WCI  16
SEATTLE WA     CLOUDY    35  32  88 SE6       30.17F
$$

*** WEATHER ACROSS MANITOBA...SASKATCHEWAN AND ONTARIO ***
                ***ONTARIO***

CITY           SKY/WX    TMP DP  RH WIND       PRES   REMARKS
GERALDTON      MOCLDY     1  -4  78 N2        30.07R
THUNDER BAY    MOCLDY    14   3  62 NE8       30.09R WCI   3
SIOUX LOOKOUT  CLEAR      1  -2  85 NE2       30.10R
TORONTO        MOCLDY    39  34  81 NE9       29.87F
BIG TROUT LK   MOCLDY    -9 -13  84 N3        30.18S
PICKLE LAKE    NOT AVBL
DRYDEN         CLEAR      5   1  85 NE3       30.08S
KENORA         CLEAR      7   0  72 N5        30.10  WCI  -2
$$
                *** MANITOBA***

CITY           SKY/WX    TMP DP  RH WIND       PRES   REMARKS
BRANDON        PTCLDY    14   9  79 NW9       30.14R WCI   2
DAUPHIN        FLURRIES  14   9  79 NE6       30.20R WCI   5
ISLAND LAKE    FLURRIES  -9 -13  84 VRB2      30.23R
PILOT MOUND      N/A     19  16  86 NW5         N/A  WCI  13
THE PAS        FLURRIES   3  -2  78 SE2       30.21F
THOMPSON       PTCLDY   -17 -22  76 NE2       30.28S
WINNIPEG       CLOUDY    10   5  79 NE7       30.19R WCI   0
LYNN LAKE      PTCLDY   -13 -17  84 NE3       30.20F
CHURCHILL      MOCLDY   -15 -18  84 NW6       30.39R WCI -29
GILLAM         FLURRIES -13 -18  77 NE6       30.32S WCI -27
$$
                ***SASKATCHEWAN***

CITY           SKY/WX    TMP DP  RH WIND       PRES   REMARKS
ESTEVAN        MOCLDY    23  19  86 W5        30.14S WCI  17
KINDERSLEY     PTCLDY    19  18  93 S8        30.06S WCI   9
LLOYDMINSTER   FLURRIES  18  14  86 SW9       30.05S WCI   6
PRINCE ALBERT  CLOUDY     5   1  85 CALM      30.12F
REGINA         CLOUDY    21  19  93 SW7       30.12S WCI  13
YORKTON        PTCLDY    12   9  85 SW3       30.14S



USA.gov is the U.S. government's official web portal to all federal, state and local government web resources and services.